Regional Weather Roundup
Issued by NWS Cleveland, OH

Home | Current Version | Previous Version | Text Only | Print | Product List | Glossary Off
Versions: 1 2 3 4 5 6 7 8 9 10 11 12 13 14 15 16 17 18 19 20 21 22 23 24 25 26 27 28 29 30 31 32 33 34 35 36 37 38 39 40 41 42 43 44 45 46 47 48 49 50

000
ASUS41 KCLE 030000
RWRCLE
OHIO REGIONAL WEATHER ROUNDUP
NATIONAL WEATHER SERVICE WILMINGTON, OH
800 PM EDT TUE SEP 02 2014

NOTE: "FAIR" INDICATES FEW OR NO CLOUDS BELOW 12,000 FEET WITH NO
SIGNIFICANT WEATHER AND/OR OBSTRUCTIONS TO VISIBILITY.

OHZ001>008-015>018-024>027-034-035-043-044-030100-
   NORTHWEST OHIO

CITY           SKY/WX    TMP DP  RH WIND       PRES   REMARKS
DEFIANCE       PTCLDY    76  64  66 CALM      29.91R
FINDLAY        CLOUDY    73  66  78 SW5       29.91S
TOLEDO EXPRESS PTCLDY    76  63  64 CALM      29.90R
TOLEDO METCALF MOCLDY    75  67  76 CALM      29.91R
LIMA           MOCLDY    73  67  81 S7        29.92F
$$

OHZ009>014-019>023-028>033-038-089-030100-
   NORTHEAST OHIO

CITY           SKY/WX    TMP DP  RH WIND       PRES   REMARKS
CLE-HOPKINS    MOCLDY    68  62  81 W7        29.93S
CLE-LAKEFRONT  MOCLDY    73  68  84 W8        29.90R
CUY CO. ARPT   MOCLDY    72  70  94 W9        29.92S
LORAIN-ELYRIA  MOCLDY    68  63  84 W5        29.93R
ASHTABULA      PTCLDY    68  65  90 W6        29.93R
AKRON-CANTON   PTCLDY    71  64  78 NW7       29.94R
WOOSTER        NOT AVBL
MANSFIELD      PTCLDY    70  66  87 CALM      29.95R
YOUNGSTOWN     MOCLDY    69  65  86 NW6       29.93R
$$

OHZ042-051>053-060>062-070>072-077>081-030100-
  SOUTHWEST OHIO

CITY           SKY/WX    TMP DP  RH WIND       PRES   REMARKS
CINC-COVINGTON MOCLDY    72  70  93 S3        29.95R
CINC-LUNKEN    PTCLDY    73  72  96 SE3       29.95R
HAMILTON       CLEAR     73  70  90 CALM      29.95R
DAYTON         NOT AVBL
WRIGHT-PAT AFB PTCLDY    74  70  86 NW1       29.95R
DAYTON GENERAL CLEAR     76  67  73 W3        29.95R
WILMINGTON     PTCLDY    74  65  73 W6        29.95R
$$

OHZ036-037-039>041-045>050-054>059-063>069-073>076-082>088-030100-
  CENTRAL AND SOUTHEAST OHIO

CITY           SKY/WX    TMP DP  RH WIND       PRES   REMARKS
COLUMBUS       PTCLDY    76  66  71 W3        29.93S
OSU AIRPORT    PTCLDY    73  67  81 W5        29.94R
BOLTON FIELD   NOT AVBL
RICKENBACK AFB NOT AVBL
NEWARK         CLEAR     72  66  81 W3        29.94S
MARION         PTCLDY    71  64  78 W5        29.94R
LANCASTER      PTCLDY    74  67  78 W3        29.94F
ZANESVILLE     PTCLDY    73  65  75 W5        29.93F
NEW PHILLY     CLOUDY    73  67  81 SW3       29.94S
$$



USA.gov is the U.S. government's official web portal to all federal, state and local government web resources and services.